Notices

What's New in latest Release from April 7th, 2021:

- Updated Glossary, including Speed of Maximum Gust, and Total Hourly Precipitation

- Updated national and regional climate services offices contacts and prices information

- Addition of station inventory lists for 1981-2010, 1971-2000, and 1961-1990 Normals.

If you haven't already, please take our survey and provide feedback about our website: https://eccc.sondage-survey.ca/f/LanguageSelection.aspx?s=442ca660-fcf1-47c0-95a9-59707d6fd709

Hourly Data Report for March 06, 2021

MIRAMICHI RCS
NEW BRUNSWICK
Current Station Operator: ECCC - MSC

47°00'34.000" N
65°27'54.000" W
33.00 m
8100989
71744
ACQ

Download Data

Hourly Data (March 2021)
Hourly Data Report for March 6, 2021
TIME
LST
Temp Definition
°C
Dew Point Definition
°C
Rel Hum Definition
%
Precip. Amount Definition
mm

Wind Dir Definition
10's deg

Wind Spd Definition
km/h
Visibility Definition
km
Stn Press Definition
kPa
Hmdx Definition


Wind Chill Definition


Weather Definition


00:00 -10.8 -17.4 58 LegendMM 26 11   99.53   -17 LegendNANA
01:00 -12.2 -17.8 63 LegendMM 24 11   99.56   -18 LegendNANA
02:00 -13.2 -18.2 66 LegendMM 24 12   99.55   -20 LegendNANA
03:00 -13.7 -18.2 69 LegendMM 25 12   99.57   -20 LegendNANA
04:00 -15.9 -19.6 73 LegendMM 23 14   99.62   -24 LegendNANA
05:00 -15.0 -19.3 70 LegendMM 24 15   99.66   -23 LegendNANA
06:00 -15.4 -19.3 72 LegendMM 23 18   99.71   -24 LegendNANA
07:00 -14.9 -18.9 72 LegendMM 23 17   99.76   -23 LegendNANA
08:00 -13.6 -18.3 68 LegendMM 24 22   99.85   -23 LegendNANA
09:00 -11.6 -17.0 64 LegendMM 23 24   99.91   -21 LegendNANA
10:00 -9.6 -16.3 58 LegendMM 23 22   99.94   -18 LegendNANA
11:00 -7.2 -15.5 52 LegendMM 26 25   99.94   -15 LegendNANA
12:00 -6.0 -15.1 49 LegendMM 24 25   99.94   -14 LegendNANA
13:00 -5.1 -14.3 49 LegendMM 24 29   99.95   -13 LegendNANA
14:00 -3.5 -13.7 45 LegendMM 26 20   99.99   -10 LegendNANA
15:00 -2.8 -13.7 43 LegendMM 25 24   100.03   -9 LegendNANA
16:00 -2.6 -13.1 45 LegendMM 24 25   100.08   -9 LegendNANA
17:00 -2.4 -12.9 44 LegendMM 27 19   100.16   -8 LegendNANA
18:00 -2.9 -12.8 46 LegendMM 27 21   100.28   -9 LegendNANA
19:00 -4.1 -12.8 51 LegendMM 28 9   100.42   -8 LegendNANA
20:00 -3.9 -12.7 50 LegendMM 26 11   100.51   -8 LegendNANA
21:00 -3.9 -12.5 51 LegendMM 25 12   100.62   -9 LegendNANA
22:00 -4.3 -12.9 51 LegendMM 26 15   100.68   -10 LegendNANA
23:00 -5.8 -13.4 55 LegendMM 26 19   100.74   -12 LegendNANA

Notes on Data Quality.

Legend

  • E = Estimated
  • M = Missing
  • NA = Not Available*
  • [empty] = Indicates an unobserved value
Date modified: